Overview Statistics Trail Chart Weather Telemetry Raw packets
 

This is the latest recevied weather packets stored in our database for station/object PA3BWK. If no packets are shown the sender has not sent any weather packets the latest 10 day(s).

<< 393 394 395 396 397 398 399 >>
Time Temp. Humidity Pressure Rain* Wind** Luminosity Snow
1788094018 19.44° C 89% 1011.8 hPa 0.76 mm - 76 W/m² -
1788093970 19.44° C 89% 1011.8 hPa 0.76 mm - 88 W/m² -
1788093898 19.44° C 89% 1011.8 hPa 0.76 mm - 107 W/m² -
1788093838 19.44° C 89% 1011.8 hPa 0.76 mm - 107 W/m² -
1788093777 19.44° C 89% 1011.8 hPa 0.76 mm - 127 W/m² -
1788093719 19.44° C 89% 1011.7 hPa 0.76 mm - 148 W/m² -
1788093657 19.44° C 89% 1011.7 hPa 0.76 mm - 206 W/m² -
1788093599 19.44° C 89% 1011.7 hPa 0.76 mm - 225 W/m² -
1788093538 19.44° C 89% 1011.7 hPa 0.76 mm - 225 W/m² -
1788093480 19.44° C 89% 1011.7 hPa 0.76 mm - 218 W/m² -
1788093418 19.44° C 89% 1011.8 hPa 0.76 mm - 213 W/m² -
1788093358 19.44° C 89% 1011.7 hPa 0.76 mm - 208 W/m² -
1788093297 19.44° C 89% 1011.8 hPa 0.76 mm - 179 W/m² -
1788093237 19.44° C 89% 1011.7 hPa 0.76 mm - 144 W/m² -
1788093178 19.44° C 89% 1011.7 hPa 0.76 mm - 144 W/m² -
1788093118 19.44° C 89% 1011.6 hPa 0.76 mm - 127 W/m² -
1788093057 19.44° C 89% 1011.8 hPa 0.76 mm - 114 W/m² -
1788092997 19.44° C 89% 1011.8 hPa 0.76 mm - 95 W/m² -
1788092938 19.44° C 89% 1011.7 hPa 0.76 mm - 93 W/m² -
1788092877 19.44° C 89% 1011.8 hPa 0.76 mm - 109 W/m² -
1788092820 19.44° C 89% 1011.7 hPa 0.76 mm - 109 W/m² -
1788092757 19.44° C 89% 1011.6 hPa 0.76 mm - 114 W/m² -
1788092697 19.44° C 89% 1011.7 hPa 0.76 mm - 114 W/m² -
1788092637 19.44° C 89% 1011.5 hPa 0.76 mm - 128 W/m² -
1788092577 19.44° C 89% 1011.6 hPa 0.76 mm - 92 W/m² -

* Rain latest hour (hover to see other rain measurements)
** Current wind speed in m/s (hover to see current wind gust speed)